QPF
0.00 0.00 0.00 0.00 0.00 0.01 0.01 0.02 0.02 0.00 0.00 0.00 0.01 0.01 0.01 0.01 0.00 0.00 0.01 0.01 0.01 0.01 0.01 0.01 0.01 0.01 0.02 0.02 0.02 0.03 0.05 0.07 0.07 0.06 0.06 0.05 0.05 0.04 0.02 0.02 0.02 0.02 0.01
0.00 0.00 0.00 0.00 0.00 0.00 0.01 0.03 0.03 0.02 0.01 0.00 0.00 0.01 0.01 0.01 0.00 0.00 0.00 0.01 0.01 0.02 0.01 0.00 0.01 0.01 0.02 0.01 0.01 0.01 0.02 0.03 0.05 0.06 0.07 0.07 0.06 0.05 0.04 0.03 0.03 0.02 0.02
0.00 0.00 0.00 0.01 0.01 0.00 0.01 0.02 0.02 0.04 0.03 0.01 0.00 0.00 0.01 0.01 0.01 0.00 0.00 0.00 0.00 0.01 0.01 0.01 0.01 0.01 0.01 0.01 0.01 0.01 0.02 0.03 0.03 0.04 0.05 0.06 0.07 0.06 0.04 0.03 0.02 0.02 0.02
0.00 0.00 0.00 0.01 0.01 0.01 0.01 0.02 0.02 0.03 0.03 0.02 0.01 0.00 0.01 0.01 0.01 0.01 0.00 0.00 0.00 0.00 0.00 0.01 0.00 0.00 0.01 0.01 0.02 0.01 0.01 0.03 0.03 0.03 0.02 0.03 0.04 0.04 0.04 0.02 0.01 0.01 0.02
0.00 0.00 0.01 0.01 0.00 0.00 0.00 0.01 0.01 0.01 0.03 0.03 0.02 0.03 0.02 0.02 0.01 0.01 0.00 0.00 0.00 0.00 0.00 0.01 0.00 0.00 0.00 0.01 0.01 0.01 0.01 0.02 0.03 0.03 0.03 0.02 0.02 0.02 0.02 0.02 0.02 0.02 0.01
0.00 0.00 0.00 0.00 0.00 0.00 0.00 0.00 0.00 0.00 0.01 0.02 0.01 0.02 0.02 0.02 0.02 0.02 0.01 0.00 0.00 0.00 0.00 0.00 0.00 0.00 0.00 0.00 0.01 0.01 0.01 0.01 0.01 0.02 0.02 0.02 0.02 0.01 0.01 0.02 0.02 0.02 0.02
0.00 0.00 0.00 0.00 0.00 0.00 0.00 0.00 0.00 0.00 0.01 0.01 0.01 0.00 0.01 0.01 0.01 0.02 0.02 0.01 0.00 0.01 0.01 0.01 0.01 0.00 0.01 0.01 0.01 0.01 0.01 0.01 0.01 0.01 0.01 0.01 0.02 0.02 0.01 0.02 0.02 0.02 0.02
0.01 0.00 0.00 0.00 0.00 0.00 0.00 0.00 0.01 0.01 0.01 0.01 0.01 0.00 0.00 0.00 0.00 0.01 0.02 0.01 0.01 0.01 0.01 0.01 0.01 0.01 0.01 0.01 0.01 0.01 0.01 0.01 0.01 0.01 0.01 0.01 0.01 0.01 0.01 0.01 0.02 0.02 0.02
0.00 0.00 0.00 0.00 0.00 0.00 0.00 0.00 0.01 0.01 0.01 0.01 0.01 0.01 0.00 0.00 0.00 0.01 0.01 0.01 0.01 0.02 0.02 0.02 0.01 0.01 0.01 0.01 0.01 0.01 0.01 0.01 0.01 0.01 0.01 0.01 0.01 0.01 0.02 0.01 0.02 0.02 0.02
0.00 0.00 0.00 0.00 0.00 0.00 0.00 0.00 0.00 0.00 0.01 0.01 0.01 0.01 0.01 0.00 0.01 0.01 0.01 0.01 0.01 0.02 0.02 0.02 0.01 0.01 0.01 0.01 0.01 0.01 0.01 0.01 0.00 0.00 0.01 0.01 0.01 0.01 0.01 0.01 0.01 0.01 0.02
0.00 0.00 0.00 0.00 0.00 0.00 0.00 0.00 0.00 0.00 0.01 0.01 0.01 0.01 0.01 0.01 0.01 0.01 0.01 0.01 0.01 0.02 0.02 0.02 0.01 0.01 0.01 0.02 0.02 0.01 0.01 0.01 0.01 0.00 0.00 0.00 0.00 0.01 0.01 0.01 0.01 0.01 0.01
0.00 0.00 0.00 0.00 0.00 0.00 0.00 0.00 0.00 0.01 0.01 0.01 0.01 0.01 0.01 0.00 0.00 0.01 0.01 0.01 0.01 0.01 0.01 0.02 0.02 0.01 0.01 0.01 0.01 0.01 0.01 0.01 0.01 0.01 0.00 0.00 0.01 0.01 0.01 0.01 0.01 0.01 0.01
0.00 0.00 0.00 0.00 0.00 0.00 0.00 0.00 0.00 0.01 0.00 0.01 0.01 0.01 0.01 0.00 0.00 0.01 0.01 0.01 0.01 0.01 0.01 0.02 0.02 0.01 0.01 0.01 0.00 0.00 0.00 0.00 0.00 0.00 0.00 0.01 0.01 0.01 0.01 0.01 0.01 0.01 0.01
0.01 0.00 0.00 0.00 0.00 0.00 0.00 0.00 0.00 0.00 0.00 0.00 0.00 0.00 0.00 0.00 0.00 0.01 0.01 0.01 0.01 0.01 0.01 0.01 0.02 0.02 0.01 0.01 0.01 0.00 0.00 0.00 0.00 0.00 0.00 0.01 0.01 0.01 0.02 0.01 0.01 0.02 0.02
0.01 0.01 0.01 0.00 0.00 0.00 0.00 0.00 0.00 0.00 0.00 0.00 0.00 0.01 0.01 0.00 0.00 0.01 0.01 0.01 0.01 0.01 0.01 0.01 0.01 0.01 0.01 0.01 0.01 0.01 0.01 0.01 0.00 0.00 0.00 0.00 0.01 0.01 0.02 0.02 0.01 0.02 0.02
0.01 0.01 0.01 0.01 0.00 0.00 0.00 0.00 0.01 0.00 0.00 0.00 0.01 0.01 0.02 0.01 0.01 0.01 0.01 0.01 0.01 0.01 0.01 0.01 0.01 0.01 0.01 0.02 0.02 0.02 0.02 0.02 0.01 0.01 0.00 0.00 0.00 0.01 0.01 0.02 0.02 0.02 0.03
0.01 0.01 0.01 0.00 0.00 0.00 0.00 0.00 0.01 0.02 0.01 0.01 0.01 0.01 0.01 0.01 0.02 0.02 0.01 0.01 0.01 0.02 0.02 0.02 0.02 0.02 0.02 0.03 0.03 0.03 0.02 0.02 0.02 0.01 0.01 0.00 0.00 0.01 0.01 0.01 0.02 0.02 0.02
0.00 0.01 0.01 0.00 0.00 0.00 0.00 0.00 0.01 0.01 0.01 0.01 0.01 0.01 0.01 0.01 0.02 0.02 0.01 0.02 0.02 0.02 0.02 0.02 0.02 0.02 0.03 0.03 0.03 0.03 0.01 0.01 0.01 0.01 0.01 0.01 0.00 0.01 0.01 0.01 0.01 0.01 0.01
0.00 0.00 0.00 0.01 0.00 0.00 0.00 0.00 0.00 0.01 0.01 0.01 0.01 0.01 0.01 0.01 0.01 0.02 0.02 0.03 0.03 0.02 0.01 0.01 0.01 0.02 0.02 0.03 0.02 0.02 0.01 0.02 0.02 0.02 0.01 0.01 0.01 0.02 0.02 0.02 0.02 0.02 0.01
0.00 0.01 0.01 0.01 0.00 0.00 0.00 0.00 0.00 0.00 0.00 0.01 0.01 0.01 0.01 0.01 0.02 0.02 0.03 0.03 0.03 0.02 0.01 0.01 0.01 0.01 0.01 0.02 0.02 0.02 0.01 0.01 0.02 0.02 0.02 0.02 0.02 0.02 0.02 0.02 0.03 0.03 0.02
0.00 0.01 0.01 0.01 0.01 0.00 0.00 0.00 0.01 0.01 0.01 0.01 0.01 0.02 0.02 0.02 0.02 0.02 0.02 0.03 0.04 0.03 0.02 0.01 0.01 0.00 0.01 0.02 0.02 0.02 0.02 0.01 0.02 0.02 0.02 0.02 0.02 0.02 0.03 0.03 0.04 0.04 0.04
0.01 0.01 0.01 0.01 0.00 0.00 0.00 0.01 0.01 0.01 0.01 0.01 0.01 0.02 0.02 0.01 0.01 0.01 0.01 0.01 0.01 0.02 0.03 0.02 0.01 0.01 0.01 0.02 0.02 0.02 0.02 0.02 0.03 0.03 0.04 0.03 0.03 0.03 0.03 0.03 0.04 0.05 0.04
0.01 0.01 0.01 0.01 0.00 0.00 0.00 0.01 0.01 0.01 0.01 0.01 0.01 0.01 0.01 0.01 0.01 0.01 0.01 0.01 0.01 0.01 0.02 0.02 0.01 0.02 0.02 0.02 0.03 0.03 0.02 0.02 0.02 0.03 0.04 0.04 0.03 0.03 0.02 0.02 0.03 0.04 0.04
0.02 0.01 0.01 0.01 0.01 0.01 0.01 0.01 0.01 0.01 0.01 0.01 0.01 0.01 0.01 0.01 0.01 0.01 0.01 0.00 0.00 0.01 0.01 0.01 0.01 0.01 0.02 0.02 0.02 0.02 0.02 0.03 0.03 0.03 0.04 0.04 0.03 0.03 0.03 0.03 0.03 0.04 0.04
0.02 0.02 0.02 0.02 0.02 0.02 0.02 0.02 0.01 0.01 0.01 0.01 0.01 0.01 0.01 0.00 0.01 0.00 0.00 0.00 0.00 0.01 0.01 0.01 0.01 0.01 0.01 0.01 0.02 0.01 0.01 0.01 0.02 0.02 0.02 0.02 0.02 0.03 0.03 0.03 0.03 0.04 0.04
0.02 0.03 0.03 0.02 0.02 0.02 0.03 0.03 0.02 0.02 0.01 0.01 0.01 0.01 0.01 0.01 0.00 0.00 0.01 0.01 0.01 0.01 0.01 0.01 0.01 0.00 0.00 0.01 0.01 0.01 0.01 0.02 0.01 0.01 0.01 0.01 0.01 0.01 0.01 0.02 0.03 0.03 0.03
MSLP
1013.98 1014.62 1015.24 1015.81 1016.30 1016.72 1017.07 1017.37 1017.66 1017.96 1018.29 1018.66 1019.04 1019.42 1019.76 1020.03 1020.22 1020.33 1020.40 1020.44 1020.51 1020.64 1020.84 1021.13 1021.48 1021.86 1022.24 1022.59 1022.87 1023.10 1023.27 1023.43 1023.58 1023.76 1023.98 1024.23 1024.50 1024.77 1025.00 1025.18 1025.31 1025.38 1025.42
1013.90 1014.60 1015.29 1015.91 1016.45 1016.89 1017.25 1017.56 1017.86 1018.19 1018.55 1018.97 1019.42 1019.86 1020.27 1020.60 1020.84 1020.99 1021.06 1021.10 1021.14 1021.24 1021.40 1021.65 1021.97 1022.33 1022.68 1023.01 1023.28 1023.50 1023.66 1023.80 1023.94 1024.11 1024.32 1024.58 1024.86 1025.14 1025.39 1025.60 1025.75 1025.86 1025.93
1013.67 1014.44 1015.20 1015.89 1016.49 1016.97 1017.36 1017.69 1018.00 1018.33 1018.72 1019.17 1019.67 1020.17 1020.64 1021.04 1021.34 1021.53 1021.63 1021.68 1021.72 1021.79 1021.92 1022.13 1022.40 1022.71 1023.02 1023.31 1023.55 1023.73 1023.88 1024.00 1024.13 1024.29 1024.50 1024.75 1025.03 1025.33 1025.61 1025.85 1026.04 1026.18 1026.30
1013.28 1014.12 1014.96 1015.73 1016.40 1016.94 1017.37 1017.72 1018.05 1018.40 1018.80 1019.27 1019.79 1020.34 1020.86 1021.32 1021.68 1021.93 1022.08 1022.16 1022.21 1022.27 1022.37 1022.54 1022.76 1023.01 1023.27 1023.51 1023.71 1023.86 1023.98 1024.08 1024.19 1024.34 1024.54 1024.79 1025.08 1025.38 1025.67 1025.94 1026.17 1026.37 1026.54
1012.77 1013.67 1014.59 1015.45 1016.20 1016.81 1017.30 1017.69 1018.04 1018.40 1018.80 1019.27 1019.80 1020.37 1020.93 1021.43 1021.85 1022.16 1022.37 1022.50 1022.58 1022.65 1022.74 1022.88 1023.05 1023.25 1023.46 1023.65 1023.81 1023.93 1024.02 1024.11 1024.21 1024.35 1024.54 1024.77 1025.05 1025.34 1025.64 1025.93 1026.19 1026.44 1026.67
1012.20 1013.15 1014.13 1015.08 1015.91 1016.61 1017.17 1017.61 1017.99 1018.35 1018.75 1019.21 1019.74 1020.30 1020.87 1021.41 1021.87 1022.23 1022.50 1022.68 1022.81 1022.91 1023.01 1023.13 1023.28 1023.45 1023.62 1023.77 1023.90 1024.00 1024.08 1024.15 1024.24 1024.37 1024.54 1024.75 1025.00 1025.28 1025.57 1025.86 1026.14 1026.42 1026.71
1011.65 1012.61 1013.64 1014.65 1015.57 1016.35 1016.98 1017.48 1017.90 1018.28 1018.68 1019.13 1019.63 1020.17 1020.73 1021.27 1021.76 1022.16 1022.48 1022.72 1022.90 1023.04 1023.17 1023.30 1023.44 1023.60 1023.75 1023.89 1024.01 1024.10 1024.18 1024.25 1024.34 1024.45 1024.59 1024.78 1024.99 1025.24 1025.50 1025.78 1026.06 1026.37 1026.69
1011.18 1012.12 1013.16 1014.21 1015.18 1016.03 1016.74 1017.31 1017.78 1018.19 1018.59 1019.03 1019.50 1020.01 1020.55 1021.07 1021.56 1021.99 1022.35 1022.63 1022.86 1023.04 1023.21 1023.37 1023.54 1023.70 1023.86 1024.01 1024.14 1024.25 1024.34 1024.42 1024.51 1024.61 1024.73 1024.88 1025.05 1025.25 1025.47 1025.72 1025.99 1026.30 1026.65
1010.82 1011.69 1012.70 1013.74 1014.74 1015.65 1016.43 1017.07 1017.60 1018.06 1018.49 1018.92 1019.37 1019.85 1020.35 1020.85 1021.32 1021.75 1022.13 1022.45 1022.72 1022.95 1023.16 1023.36 1023.56 1023.76 1023.96 1024.13 1024.29 1024.43 1024.55 1024.65 1024.74 1024.83 1024.93 1025.04 1025.17 1025.32 1025.50 1025.70 1025.96 1026.26 1026.62
1010.59 1011.33 1012.24 1013.24 1014.23 1015.17 1016.00 1016.73 1017.33 1017.86 1018.33 1018.78 1019.24 1019.70 1020.17 1020.63 1021.08 1021.49 1021.87 1022.21 1022.51 1022.78 1023.04 1023.29 1023.53 1023.78 1024.01 1024.24 1024.44 1024.62 1024.77 1024.90 1025.01 1025.10 1025.18 1025.26 1025.34 1025.45 1025.57 1025.74 1025.97 1026.25 1026.61
1010.46 1011.02 1011.78 1012.67 1013.62 1014.55 1015.43 1016.23 1016.93 1017.54 1018.09 1018.59 1019.07 1019.54 1019.99 1020.43 1020.85 1021.24 1021.61 1021.95 1022.27 1022.57 1022.87 1023.16 1023.46 1023.75 1024.04 1024.31 1024.56 1024.79 1024.98 1025.14 1025.27 1025.37 1025.44 1025.50 1025.55 1025.61 1025.70 1025.84 1026.03 1026.30 1026.64
1010.39 1010.73 1011.30 1012.04 1012.89 1013.80 1014.70 1015.56 1016.35 1017.07 1017.72 1018.31 1018.85 1019.34 1019.80 1020.23 1020.64 1021.02 1021.37 1021.71 1022.04 1022.37 1022.69 1023.02 1023.35 1023.69 1024.02 1024.35 1024.65 1024.92 1025.15 1025.34 1025.50 1025.61 1025.69 1025.74 1025.77 1025.81 1025.88 1025.98 1026.15 1026.40 1026.73
1010.38 1010.47 1010.81 1011.36 1012.09 1012.93 1013.83 1014.74 1015.62 1016.45 1017.21 1017.90 1018.52 1019.08 1019.58 1020.03 1020.44 1020.81 1021.17 1021.51 1021.84 1022.18 1022.53 1022.89 1023.25 1023.62 1023.99 1024.34 1024.68 1024.99 1025.26 1025.49 1025.67 1025.81 1025.91 1025.97 1026.00 1026.04 1026.09 1026.18 1026.34 1026.56 1026.87
1010.45 1010.27 1010.37 1010.71 1011.28 1012.02 1012.88 1013.81 1014.76 1015.69 1016.56 1017.36 1018.09 1018.73 1019.29 1019.79 1020.22 1020.61 1020.98 1021.33 1021.68 1022.03 1022.39 1022.77 1023.15 1023.54 1023.93 1024.31 1024.67 1025.01 1025.31 1025.58 1025.79 1025.97 1026.09 1026.18 1026.24 1026.29 1026.36 1026.45 1026.59 1026.80 1027.08
1010.64 1010.22 1010.07 1010.20 1010.58 1011.19 1011.97 1012.88 1013.86 1014.84 1015.81 1016.71 1017.53 1018.27 1018.91 1019.47 1019.95 1020.39 1020.79 1021.16 1021.53 1021.90 1022.28 1022.67 1023.06 1023.46 1023.86 1024.25 1024.62 1024.98 1025.30 1025.60 1025.86 1026.07 1026.25 1026.39 1026.49 1026.58 1026.66 1026.77 1026.91 1027.10 1027.35
1011.02 1010.39 1010.02 1009.93 1010.11 1010.56 1011.22 1012.05 1013.00 1014.00 1015.01 1015.98 1016.88 1017.70 1018.42 1019.05 1019.61 1020.10 1020.55 1020.97 1021.37 1021.77 1022.16 1022.56 1022.96 1023.36 1023.75 1024.14 1024.51 1024.88 1025.23 1025.56 1025.87 1026.14 1026.38 1026.57 1026.74 1026.88 1027.01 1027.13 1027.28 1027.46 1027.68
1011.64 1010.86 1010.30 1010.00 1009.98 1010.24 1010.74 1011.44 1012.30 1013.25 1014.24 1015.22 1016.16 1017.04 1017.83 1018.53 1019.16 1019.73 1020.24 1020.71 1021.16 1021.59 1022.01 1022.42 1022.82 1023.21 1023.59 1023.97 1024.35 1024.72 1025.09 1025.46 1025.81 1026.15 1026.46 1026.74 1026.98 1027.19 1027.37 1027.53 1027.69 1027.86 1028.06
1012.54 1011.65 1010.95 1010.48 1010.26 1010.31 1010.61 1011.13 1011.83 1012.66 1013.57 1014.51 1015.44 1016.32 1017.15 1017.91 1018.61 1019.24 1019.82 1020.35 1020.86 1021.33 1021.78 1022.20 1022.60 1022.99 1023.36 1023.73 1024.11 1024.49 1024.88 1025.28 1025.69 1026.10 1026.49 1026.85 1027.18 1027.46 1027.71 1027.92 1028.10 1028.27 1028.45
1013.66 1012.74 1011.94 1011.33 1010.93 1010.76 1010.84 1011.14 1011.64 1012.30 1013.06 1013.89 1014.75 1015.60 1016.43 1017.22 1017.95 1018.64 1019.28 1019.88 1020.44 1020.96 1021.44 1021.88 1022.29 1022.68 1023.05 1023.41 1023.79 1024.18 1024.59 1025.03 1025.50 1025.97 1026.44 1026.89 1027.31 1027.67 1027.99 1028.25 1028.46 1028.65 1028.81
1014.91 1014.00 1013.16 1012.44 1011.89 1011.53 1011.39 1011.45 1011.72 1012.16 1012.74 1013.41 1014.15 1014.92 1015.71 1016.48 1017.23 1017.95 1018.64 1019.29 1019.90 1020.46 1020.98 1021.45 1021.88 1022.27 1022.64 1023.01 1023.39 1023.80 1024.23 1024.71 1025.23 1025.77 1026.31 1026.84 1027.34 1027.78 1028.16 1028.48 1028.73 1028.94 1029.11
1016.13 1015.29 1014.46 1013.69 1013.02 1012.51 1012.16 1012.00 1012.04 1012.24 1012.60 1013.09 1013.67 1014.32 1015.02 1015.74 1016.47 1017.20 1017.91 1018.60 1019.24 1019.85 1020.40 1020.90 1021.36 1021.77 1022.16 1022.54 1022.94 1023.36 1023.83 1024.34 1024.90 1025.49 1026.09 1026.68 1027.24 1027.75 1028.19 1028.56 1028.85 1029.09 1029.28
1017.18 1016.44 1015.67 1014.89 1014.17 1013.54 1013.04 1012.69 1012.51 1012.50 1012.64 1012.92 1013.32 1013.82 1014.40 1015.03 1015.71 1016.41 1017.12 1017.81 1018.49 1019.13 1019.72 1020.26 1020.75 1021.20 1021.62 1022.03 1022.46 1022.90 1023.40 1023.94 1024.52 1025.14 1025.78 1026.41 1027.01 1027.56 1028.05 1028.45 1028.79 1029.05 1029.27
1017.93 1017.33 1016.64 1015.92 1015.20 1014.52 1013.92 1013.43 1013.08 1012.87 1012.81 1012.89 1013.10 1013.43 1013.86 1014.38 1014.97 1015.61 1016.28 1016.97 1017.66 1018.32 1018.95 1019.53 1020.07 1020.57 1021.04 1021.49 1021.95 1022.43 1022.95 1023.51 1024.11 1024.74 1025.39 1026.03 1026.64 1027.21 1027.72 1028.15 1028.51 1028.81 1029.06
1018.33 1017.87 1017.31 1016.68 1016.01 1015.34 1014.70 1014.13 1013.66 1013.30 1013.07 1012.97 1013.00 1013.15 1013.42 1013.80 1014.28 1014.83 1015.44 1016.10 1016.77 1017.45 1018.11 1018.74 1019.34 1019.90 1020.42 1020.93 1021.44 1021.95 1022.49 1023.06 1023.66 1024.28 1024.91 1025.54 1026.14 1026.70 1027.20 1027.64 1028.01 1028.34 1028.63
1018.38 1018.06 1017.64 1017.13 1016.56 1015.95 1015.33 1014.74 1014.20 1013.74 1013.38 1013.12 1012.98 1012.97 1013.07 1013.30 1013.64 1014.08 1014.62 1015.22 1015.87 1016.54 1017.23 1017.90 1018.56 1019.18 1019.77 1020.34 1020.90 1021.45 1022.00 1022.57 1023.16 1023.75 1024.35 1024.93 1025.50 1026.02 1026.50 1026.93 1027.31 1027.66 1027.97
1018.14 1017.96 1017.68 1017.31 1016.85 1016.34 1015.79 1015.22 1014.67 1014.15 1013.70 1013.32 1013.04 1012.87 1012.81 1012.88 1013.08 1013.40 1013.83 1014.36 1014.97 1015.63 1016.33 1017.04 1017.74 1018.42 1019.07 1019.70 1020.30 1020.88 1021.45 1022.01 1022.57 1023.13 1023.68 1024.21 1024.72 1025.20 1025.65 1026.06 1026.44 1026.80 1027.13
Thickness
5721 5720 5719 5717 5716 5715 5715 5713 5712 5710 5708 5706 5704 5702 5701 5701 5699 5698 5697 5696 5696 5695 5694 5693 5691 5688 5687 5686 5686 5684 5684 5684 5685 5685 5684 5686 5687 5686 5685 5685 5685 5685 5684
5718 5716 5715 5714 5713 5712 5711 5710 5709 5707 5705 5703 5702 5700 5699 5698 5696 5694 5693 5692 5692 5691 5690 5689 5687 5684 5682 5682 5681 5680 5680 5680 5681 5680 5679 5678 5679 5680 5681 5680 5680 5680 5679
5717 5715 5713 5712 5710 5709 5708 5707 5705 5703 5701 5700 5699 5696 5695 5694 5692 5690 5689 5688 5688 5687 5685 5685 5683 5681 5680 5679 5677 5676 5675 5675 5676 5678 5676 5674 5672 5674 5676 5676 5676 5675 5675
5716 5713 5710 5709 5708 5706 5706 5705 5702 5701 5699 5697 5694 5692 5690 5688 5688 5688 5686 5685 5684 5682 5681 5681 5679 5678 5677 5675 5674 5674 5673 5671 5671 5672 5672 5673 5672 5670 5668 5671 5672 5672 5671
5715 5711 5709 5708 5706 5704 5701 5701 5699 5697 5695 5693 5690 5688 5688 5686 5685 5684 5683 5682 5680 5679 5677 5676 5675 5675 5674 5673 5671 5670 5670 5669 5668 5668 5668 5668 5667 5670 5667 5664 5666 5667 5667
5713 5710 5708 5705 5702 5700 5697 5695 5694 5692 5690 5688 5687 5685 5684 5681 5680 5678 5678 5677 5676 5674 5674 5672 5671 5670 5670 5669 5668 5666 5666 5666 5664 5664 5665 5664 5664 5664 5664 5662 5662 5662 5662
5711 5707 5703 5700 5698 5695 5693 5691 5689 5686 5685 5684 5683 5682 5681 5679 5677 5675 5674 5673 5672 5670 5669 5668 5667 5666 5665 5665 5663 5663 5662 5662 5660 5660 5661 5661 5661 5662 5661 5660 5660 5659 5659
5709 5705 5702 5699 5696 5693 5690 5688 5686 5683 5682 5680 5680 5679 5678 5675 5674 5672 5670 5669 5668 5667 5666 5664 5663 5662 5661 5660 5659 5658 5658 5659 5658 5657 5656 5656 5657 5657 5657 5656 5655 5654 5655
5705 5702 5699 5697 5694 5691 5688 5685 5683 5681 5679 5678 5676 5675 5673 5671 5669 5668 5666 5665 5664 5662 5661 5660 5659 5657 5656 5655 5655 5654 5654 5653 5653 5653 5652 5652 5652 5652 5652 5652 5652 5650 5649
5702 5699 5697 5694 5692 5689 5686 5683 5681 5678 5676 5674 5672 5670 5668 5667 5664 5663 5662 5660 5659 5657 5656 5656 5654 5653 5652 5651 5650 5649 5649 5649 5648 5646 5647 5647 5648 5648 5646 5646 5646 5647 5646
5698 5696 5693 5691 5689 5686 5682 5679 5676 5674 5671 5669 5668 5665 5663 5662 5660 5658 5656 5655 5654 5652 5652 5651 5651 5649 5648 5647 5645 5644 5644 5644 5645 5644 5643 5643 5643 5642 5642 5642 5641 5641 5642
5694 5691 5689 5686 5684 5681 5678 5676 5673 5669 5667 5665 5663 5661 5658 5656 5655 5653 5651 5650 5649 5648 5648 5647 5646 5645 5644 5643 5642 5640 5639 5640 5639 5639 5639 5638 5638 5637 5637 5636 5637 5637 5637
5688 5686 5683 5682 5679 5676 5674 5672 5669 5665 5662 5660 5658 5656 5654 5651 5650 5648 5647 5646 5645 5644 5643 5643 5642 5640 5639 5638 5638 5637 5637 5636 5636 5635 5635 5634 5634 5633 5632 5631 5631 5631 5631
5683 5681 5678 5677 5675 5673 5670 5668 5665 5662 5658 5655 5653 5651 5649 5647 5645 5643 5641 5640 5640 5639 5639 5638 5637 5636 5634 5634 5633 5633 5633 5632 5631 5631 5630 5630 5629 5628 5628 5626 5626 5625 5624
5677 5676 5674 5672 5670 5668 5666 5664 5661 5658 5654 5651 5648 5646 5645 5643 5640 5638 5636 5635 5633 5633 5633 5632 5631 5631 5630 5629 5628 5628 5627 5627 5626 5626 5625 5624 5622 5621 5621 5620 5620 5619 5618
5672 5671 5670 5667 5666 5665 5662 5660 5657 5654 5650 5646 5643 5641 5638 5636 5634 5632 5630 5629 5627 5627 5626 5626 5626 5625 5624 5621 5620 5620 5622 5622 5621 5620 5619 5618 5616 5614 5612 5612 5612 5612 5612
5666 5666 5665 5664 5662 5661 5660 5656 5653 5649 5645 5641 5637 5635 5632 5630 5628 5626 5624 5622 5621 5620 5620 5620 5620 5619 5617 5614 5613 5612 5615 5616 5616 5615 5614 5613 5611 5610 5610 5607 5605 5604 5603
5661 5661 5660 5659 5658 5656 5654 5651 5647 5643 5639 5635 5632 5629 5626 5624 5622 5620 5619 5617 5617 5615 5614 5614 5613 5612 5611 5608 5607 5606 5608 5609 5609 5608 5608 5607 5607 5604 5604 5604 5603 5601 5600
5655 5655 5655 5654 5652 5649 5647 5644 5640 5637 5633 5629 5626 5624 5621 5618 5616 5614 5613 5612 5611 5610 5609 5608 5607 5607 5606 5602 5600 5599 5602 5603 5603 5602 5602 5601 5600 5598 5596 5598 5598 5597 5595
5649 5648 5647 5646 5644 5642 5640 5637 5634 5630 5627 5624 5621 5618 5615 5613 5611 5609 5607 5605 5604 5603 5603 5602 5602 5601 5600 5597 5594 5593 5596 5597 5597 5596 5595 5593 5592 5591 5589 5591 5592 5590 5589
5640 5639 5639 5637 5636 5634 5632 5630 5628 5625 5622 5619 5615 5612 5609 5607 5605 5603 5601 5599 5598 5597 5596 5596 5595 5594 5593 5591 5589 5587 5590 5590 5590 5589 5589 5587 5584 5583 5582 5582 5584 5584 5582
5631 5631 5630 5629 5628 5626 5625 5624 5622 5620 5616 5612 5608 5606 5604 5601 5599 5596 5595 5594 5592 5591 5590 5589 5589 5588 5587 5585 5583 5582 5581 5582 5583 5583 5582 5580 5577 5575 5574 5574 5575 5574 5573
5624 5624 5622 5620 5620 5619 5618 5616 5614 5612 5608 5605 5602 5600 5598 5595 5593 5591 5589 5588 5586 5585 5584 5584 5583 5582 5581 5579 5577 5575 5574 5573 5574 5575 5573 5571 5569 5568 5567 5566 5566 5566 5568
5617 5616 5615 5613 5613 5612 5610 5609 5607 5604 5602 5599 5597 5594 5592 5589 5587 5585 5583 5582 5580 5579 5578 5577 5576 5576 5575 5573 5572 5570 5568 5566 5565 5566 5564 5562 5561 5560 5560 5560 5559 5560 5561
5611 5610 5608 5607 5606 5604 5603 5601 5599 5597 5595 5593 5591 5588 5585 5583 5581 5579 5576 5575 5574 5572 5570 5570 5570 5569 5568 5566 5563 5562 5562 5561 5560 5559 5558 5557 5556 5556 5555 5555 5555 5554 5553
5603 5602 5601 5599 5599 5597 5595 5593 5591 5589 5588 5587 5585 5582 5579 5576 5573 5571 5568 5565 5564 5562 5561 5560 5560 5561 5559 5557 5555 5554 5553 5552 5551 5550 5552 5552 5550 5549 5549 5549 5548 5547 5547